Flag for Switzerland Weather past 2 weeks in Zürich, Zurich, Switzerland

Now
32 °F

Chilly.


Feels Like: 32 °F
Forecast: 24 / 45 °F
Wind: 2 mph from Northeast

Location: Zurich Town / Ville.

Current Time: Mar 5, 2015 at 11:59:31 PM

Latest Report: Mar 5, 2015 at 11:00 PM


Visibility: N/A

Pressure: 30.67 "Hg

Humidity: 69%

Dew point: 23 °F

Location of ZürichLocation

Historic Weather in Zürich — Graph

°F

Zürich temperature yesterday

Maximum temperature yesterday: 45 °F (at 12:00 AM)
Minimum temperature yesterday: 33 °F (at 9:00 PM)
Average temperature yesterday: 38 °F

Past Weeks' High & Low Weather Summary

 TemperatureHumidityPressure
High50 °F (Feb 20, 4:00 PM)100% (Feb 21, 10:00 PM)30.69 "Hg (Feb 21, 10:00 PM)
Low28 °F (Feb 23, 5:00 AM)35% (Feb 20, 4:00 PM)29.58 "Hg (Feb 21, 12:00 PM)
Average37 °F77%30.08 "Hg
* Reported Feb 18 9:00 PM — Mar 5 9:00 PM, Zürich, Weather by CustomWeather, © 2015

Note: Actual official high and low records may vary slightly from our data, if they occured in-between our weather recording intervals... More about our weather records

Advertising

Zürich weather history for previous 24 hours

 ConditionsComfort  
Time TempWeatherWind HumidityBarometerVisibility
9:00 PM
Thu, Mar 5
34 °FChilly.2 mph64%30.66 "HgN/A
8:00 PM36 °FChilly.3 mph61%30.64 "HgN/A
7:00 PM37 °FChilly.2 mph52%30.63 "HgN/A
6:00 PM39 °FChilly.3 mph47%30.60 "HgN/A
5:00 PM40 °FChilly.3 mph46%30.59 "HgN/A
4:00 PM39 °FChilly.6 mph45%30.58 "HgN/A
3:00 PM40 °FQuite cool.6 mph46%30.58 "HgN/A
2:00 PM42 °FQuite cool.6 mph44%30.58 "HgN/A
1:00 PM40 °FPartly sunny.8 mph49%30.59 "HgN/A
12:00 PM38 °FChilly.5 mph57%30.60 "HgN/A
11:00 AM39 °FChilly.5 mph56%30.59 "HgN/A
10:00 AM37 °FChilly.3 mph66%30.60 "HgN/A
9:00 AM35 °FChilly.3 mph73%30.60 "HgN/A
8:00 AM33 °FChilly.1 mph79%30.59 "HgN/A
7:00 AM33 °FChilly.3 mph81%30.58 "HgN/A
6:00 AM33 °FChilly.1 mph86%30.58 "HgN/A
5:00 AM32 °FChilly.1 mph91%30.57 "HgN/A
3:00 AM33 °FChilly.1 mph95%30.56 "HgN/A
2:00 AM33 °FChilly.1 mph92%30.55 "HgN/A
1:00 AM33 °FChilly.1 mph91%30.54 "HgN/A
12:00 AM33 °FChilly.1 mph92%30.53 "HgN/A
11:00 PM
Wed, Mar 4
33 °FChilly.No wind91%30.52 "HgN/A
Weather by CustomWeather, © 2015

See weather overviewHow to use our weather pages